owner,sensor,date,latitude,longitude,sea_surface_height_above_sea_level,qcFlag 
COMPS,ioos:station:USF.COMPS:TAR:1,2013-05-01T15:00:00Z,28.1560,-82.7580,-0.032,1111122 
COMPS,ioos:station:USF.COMPS:TAR:1,2013-05-01T15:06:00Z,28.1560,-82.7580,-0.033,1111122 
COMPS,ioos:station:USF.COMPS:TAR:1,2013-05-01T15:12:00Z,28.1560,-82.7580,-0.033,1111122 
COMPS,ioos:station:USF.COMPS:TAR:1,2013-05-01T15:18:00Z,28.1560,-82.7580,-0.033,1111122 
COMPS,ioos:station:USF.COMPS:TAR:1,2013-05-01T15:24:00Z,28.1560,-82.7580,-0.033,1111122 
COMPS,ioos:station:USF.COMPS:TAR:1,2013-05-01T15:30:00Z,28.1560,-82.7580,-0.033,1111122 
COMPS,ioos:station:USF.COMPS:TAR:1,2013-05-01T15:36:00Z,28.1560,-82.7580,-0.032,1111122 
COMPS,ioos:station:USF.COMPS:TAR:1,2013-05-01T15:42:00Z,28.1560,-82.7580,-0.033,1111122 
COMPS,ioos:station:USF.COMPS:TAR:1,2013-05-01T15:48:00Z,28.1560,-82.7580,-0.033,1111122 
COMPS,ioos:station:USF.COMPS:TAR:1,2013-05-01T15:54:00Z,28.1560,-82.7580,-0.032,1111122 
COMPS,ioos:station:USF.COMPS:TAR:1,2013-05-01T16:00:00Z,28.1560,-82.7580,-0.03,1111122 
COMPS,ioos:station:USF.COMPS:TAR:1,2013-05-01T16:06:00Z,28.1560,-82.7580,-0.03,1111122 
COMPS,ioos:station:USF.COMPS:TAR:1,2013-05-01T16:12:00Z,28.1560,-82.7580,-0.031,1111122 
COMPS,ioos:station:USF.COMPS:TAR:1,2013-05-01T16:18:00Z,28.1560,-82.7580,-0.031,1111122 
COMPS,ioos:station:USF.COMPS:TAR:1,2013-05-01T16:24:00Z,28.1560,-82.7580,-0.032,1111122 
COMPS,ioos:station:USF.COMPS:TAR:1,2013-05-01T16:30:00Z,28.1560,-82.7580,-0.031,1111122 
COMPS,ioos:station:USF.COMPS:TAR:1,2013-05-01T16:36:00Z,28.1560,-82.7580,-0.031,1111122 
COMPS,ioos:station:USF.COMPS:TAR:1,2013-05-01T16:42:00Z,28.1560,-82.7580,-0.031,1111122 
COMPS,ioos:station:USF.COMPS:TAR:1,2013-05-01T16:48:00Z,28.1560,-82.7580,-0.031,1111122 
COMPS,ioos:station:USF.COMPS:TAR:1,2013-05-01T16:54:00Z,28.1560,-82.7580,-0.03,1111122 
COMPS,ioos:station:USF.COMPS:TAR:1,2013-05-01T17:00:00Z,28.1560,-82.7580,-0.03,1111122 
COMPS,ioos:station:USF.COMPS:TAR:1,2013-05-01T17:06:00Z,28.1560,-82.7580,-0.03,1111122 
COMPS,ioos:station:USF.COMPS:TAR:1,2013-05-01T17:12:00Z,28.1560,-82.7580,-0.029,1111122 
COMPS,ioos:station:USF.COMPS:TAR:1,2013-05-01T17:18:00Z,28.1560,-82.7580,-0.029,1111122 
COMPS,ioos:station:USF.COMPS:TAR:1,2013-05-01T17:24:00Z,28.1560,-82.7580,-0.029,1111122 
COMPS,ioos:station:USF.COMPS:TAR:1,2013-05-01T17:30:00Z,28.1560,-82.7580,-0.029,1111122 
COMPS,ioos:station:USF.COMPS:TAR:1,2013-05-01T17:36:00Z,28.1560,-82.7580,-0.029,1111122 
COMPS,ioos:station:USF.COMPS:TAR:1,2013-05-01T17:42:00Z,28.1560,-82.7580,-0.028,1111122 
COMPS,ioos:station:USF.COMPS:TAR:1,2013-05-01T17:48:00Z,28.1560,-82.7580,-0.028,1111122 
COMPS,ioos:station:USF.COMPS:TAR:1,2013-05-01T17:54:00Z,28.1560,-82.7580,-0.028,1111122 
COMPS,ioos:station:USF.COMPS:TAR:1,2013-05-01T18:00:00Z,28.1560,-82.7580,-0.027,1111122 
COMPS,ioos:station:USF.COMPS:TAR:1,2013-05-01T18:06:00Z,28.1560,-82.7580,-0.027,1111122 
COMPS,ioos:station:USF.COMPS:TAR:1,2013-05-01T18:12:00Z,28.1560,-82.7580,-0.027,1111122 
COMPS,ioos:station:USF.COMPS:TAR:1,2013-05-01T18:18:00Z,28.1560,-82.7580,-0.027,1111122 
COMPS,ioos:station:USF.COMPS:TAR:1,2013-05-01T18:24:00Z,28.1560,-82.7580,-0.026,1111122 
COMPS,ioos:station:USF.COMPS:TAR:1,2013-05-01T18:30:00Z,28.1560,-82.7580,-0.026,1111122 
COMPS,ioos:station:USF.COMPS:TAR:1,2013-05-01T18:36:00Z,28.1560,-82.7580,-0.025,1111122 
COMPS,ioos:station:USF.COMPS:TAR:1,2013-05-01T18:42:00Z,28.1560,-82.7580,-0.025,1111122 
COMPS,ioos:station:USF.COMPS:TAR:1,2013-05-01T18:48:00Z,28.1560,-82.7580,-0.025,1111122 
COMPS,ioos:station:USF.COMPS:TAR:1,2013-05-01T18:54:00Z,28.1560,-82.7580,-0.024,1111122 
COMPS,ioos:station:USF.COMPS:TAR:1,2013-05-01T19:00:00Z,28.1560,-82.7580,-0.024,1111122 
COMPS,ioos:station:USF.COMPS:TAR:1,2013-05-01T19:06:00Z,28.1560,-82.7580,-0.023,1111122 
COMPS,ioos:station:USF.COMPS:TAR:1,2013-05-01T19:12:00Z,28.1560,-82.7580,-0.023,1111122 
COMPS,ioos:station:USF.COMPS:TAR:1,2013-05-01T19:18:00Z,28.1560,-82.7580,-0.022,1111122 
COMPS,ioos:station:USF.COMPS:TAR:1,2013-05-01T19:24:00Z,28.1560,-82.7580,-0.021,1111122 
COMPS,ioos:station:USF.COMPS:TAR:1,2013-05-01T19:30:00Z,28.1560,-82.7580,-0.02,1111122 
COMPS,ioos:station:USF.COMPS:TAR:1,2013-05-01T19:36:00Z,28.1560,-82.7580,-0.02,1111122 
COMPS,ioos:station:USF.COMPS:TAR:1,2013-05-01T19:42:00Z,28.1560,-82.7580,-0.019,1111122 
COMPS,ioos:station:USF.COMPS:TAR:1,2013-05-01T19:48:00Z,28.1560,-82.7580,-0.019,1111122 
COMPS,ioos:station:USF.COMPS:TAR:1,2013-05-01T19:54:00Z,28.1560,-82.7580,-0.018,1111122 
COMPS,ioos:station:USF.COMPS:TAR:1,2013-05-01T20:00:00Z,28.1560,-82.7580,-0.018,1111122 
COMPS,ioos:station:USF.COMPS:TAR:1,2013-05-01T20:06:00Z,28.1560,-82.7580,-0.017,1111122 
COMPS,ioos:station:USF.COMPS:TAR:1,2013-05-01T20:12:00Z,28.1560,-82.7580,-0.016,1111122 
COMPS,ioos:station:USF.COMPS:TAR:1,2013-05-01T20:18:00Z,28.1560,-82.7580,-0.016,1111122 
COMPS,ioos:station:USF.COMPS:TAR:1,2013-05-01T20:24:00Z,28.1560,-82.7580,-0.015,1111122 
COMPS,ioos:station:USF.COMPS:TAR:1,2013-05-01T20:30:00Z,28.1560,-82.7580,-0.014,1111122 
COMPS,ioos:station:USF.COMPS:TAR:1,2013-05-01T20:36:00Z,28.1560,-82.7580,-0.013,1111122 
COMPS,ioos:station:USF.COMPS:TAR:1,2013-05-01T20:42:00Z,28.1560,-82.7580,-0.012,1111122 
COMPS,ioos:station:USF.COMPS:TAR:1,2013-05-01T20:48:00Z,28.1560,-82.7580,-0.008,1111122 
COMPS,ioos:station:USF.COMPS:TAR:1,2013-05-01T20:54:00Z,28.1560,-82.7580,-0.008,1111122 
COMPS,ioos:station:USF.COMPS:TAR:1,2013-05-01T21:00:00Z,28.1560,-82.7580,-0.008,1111122 
COMPS,ioos:station:USF.COMPS:TAR:1,2013-05-01T21:06:00Z,28.1560,-82.7580,-0.008,1111122 
COMPS,ioos:station:USF.COMPS:TAR:1,2013-05-01T21:12:00Z,28.1560,-82.7580,-0.007,1111122 
COMPS,ioos:station:USF.COMPS:TAR:1,2013-05-01T21:18:00Z,28.1560,-82.7580,-0.007,1111122 
COMPS,ioos:station:USF.COMPS:TAR:1,2013-05-01T21:24:00Z,28.1560,-82.7580,-0.006,1111122 
COMPS,ioos:station:USF.COMPS:TAR:1,2013-05-01T21:30:00Z,28.1560,-82.7580,-0.006,1111122 
COMPS,ioos:station:USF.COMPS:TAR:1,2013-05-01T21:36:00Z,28.1560,-82.7580,-0.005,1111122 
COMPS,ioos:station:USF.COMPS:TAR:1,2013-05-01T21:42:00Z,28.1560,-82.7580,-0.004,1111122 
COMPS,ioos:station:USF.COMPS:TAR:1,2013-05-01T21:48:00Z,28.1560,-82.7580,-0.003,1111122 
COMPS,ioos:station:USF.COMPS:TAR:1,2013-05-01T21:54:00Z,28.1560,-82.7580,-0.002,1111122 
COMPS,ioos:station:USF.COMPS:TAR:1,2013-05-01T22:00:00Z,28.1560,-82.7580,-0.002,1111122 
COMPS,ioos:station:USF.COMPS:TAR:1,2013-05-01T22:06:00Z,28.1560,-82.7580,0.0,1114422 
COMPS,ioos:station:USF.COMPS:TAR:1,2013-05-01T22:12:00Z,28.1560,-82.7580,0.0,1114422 
COMPS,ioos:station:USF.COMPS:TAR:1,2013-05-01T22:18:00Z,28.1560,-82.7580,0.0,1114422 
COMPS,ioos:station:USF.COMPS:TAR:1,2013-05-01T22:24:00Z,28.1560,-82.7580,0.001,1111122 
COMPS,ioos:station:USF.COMPS:TAR:1,2013-05-01T22:30:00Z,28.1560,-82.7580,0.002,1111122 
COMPS,ioos:station:USF.COMPS:TAR:1,2013-05-01T22:36:00Z,28.1560,-82.7580,0.002,1111122 
COMPS,ioos:station:USF.COMPS:TAR:1,2013-05-01T22:42:00Z,28.1560,-82.7580,0.003,1111122 
COMPS,ioos:station:USF.COMPS:TAR:1,2013-05-01T22:48:00Z,28.1560,-82.7580,0.003,1111122 
COMPS,ioos:station:USF.COMPS:TAR:1,2013-05-01T22:54:00Z,28.1560,-82.7580,0.004,1111122 
COMPS,ioos:station:USF.COMPS:TAR:1,2013-05-01T23:00:00Z,28.1560,-82.7580,0.004,1111122 
COMPS,ioos:station:USF.COMPS:TAR:1,2013-05-01T23:06:00Z,28.1560,-82.7580,0.005,1111122 
COMPS,ioos:station:USF.COMPS:TAR:1,2013-05-01T23:12:00Z,28.1560,-82.7580,0.005,1111122 
COMPS,ioos:station:USF.COMPS:TAR:1,2013-05-01T23:18:00Z,28.1560,-82.7580,0.006,1111122 
COMPS,ioos:station:USF.COMPS:TAR:1,2013-05-01T23:24:00Z,28.1560,-82.7580,0.006,1111122 
COMPS,ioos:station:USF.COMPS:TAR:1,2013-05-01T23:30:00Z,28.1560,-82.7580,0.006,1111122 
COMPS,ioos:station:USF.COMPS:TAR:1,2013-05-01T23:36:00Z,28.1560,-82.7580,0.007,1111122 
COMPS,ioos:station:USF.COMPS:TAR:1,2013-05-01T23:42:00Z,28.1560,-82.7580,0.007,1111122 
COMPS,ioos:station:USF.COMPS:TAR:1,2013-05-01T23:48:00Z,28.1560,-82.7580,0.007,1111122 
COMPS,ioos:station:USF.COMPS:TAR:1,2013-05-01T23:54:00Z,28.1560,-82.7580,0.007,1111122 
COMPS,ioos:station:USF.COMPS:TAR:1,2013-05-02T00:00:00Z,28.1560,-82.7580,0.008,1111122 
COMPS,ioos:station:USF.COMPS:TAR:1,2013-05-02T00:06:00Z,28.1560,-82.7580,0.008,1111122 
COMPS,ioos:station:USF.COMPS:TAR:1,2013-05-02T00:12:00Z,28.1560,-82.7580,0.008,1111122 
COMPS,ioos:station:USF.COMPS:TAR:1,2013-05-02T00:18:00Z,28.1560,-82.7580,0.008,1111122 
COMPS,ioos:station:USF.COMPS:TAR:1,2013-05-02T00:24:00Z,28.1560,-82.7580,0.009,1111122 
COMPS,ioos:station:USF.COMPS:TAR:1,2013-05-02T00:30:00Z,28.1560,-82.7580,0.009,1111122 
COMPS,ioos:station:USF.COMPS:TAR:1,2013-05-02T00:36:00Z,28.1560,-82.7580,0.009,1111122 
COMPS,ioos:station:USF.COMPS:TAR:1,2013-05-02T00:42:00Z,28.1560,-82.7580,0.009,1111122 
COMPS,ioos:station:USF.COMPS:TAR:1,2013-05-02T00:48:00Z,28.1560,-82.7580,0.009,1111122 
COMPS,ioos:station:USF.COMPS:TAR:1,2013-05-02T00:54:00Z,28.1560,-82.7580,0.009,1111122 
COMPS,ioos:station:USF.COMPS:TAR:1,2013-05-02T01:00:00Z,28.1560,-82.7580,0.01,1111122 
COMPS,ioos:station:USF.COMPS:TAR:1,2013-05-02T01:06:00Z,28.1560,-82.7580,0.01,1111122 
COMPS,ioos:station:USF.COMPS:TAR:1,2013-05-02T01:12:00Z,28.1560,-82.7580,0.01,1111122 
COMPS,ioos:station:USF.COMPS:TAR:1,2013-05-02T01:18:00Z,28.1560,-82.7580,0.01,1111122 
COMPS,ioos:station:USF.COMPS:TAR:1,2013-05-02T01:24:00Z,28.1560,-82.7580,0.01,1111122 
COMPS,ioos:station:USF.COMPS:TAR:1,2013-05-02T01:30:00Z,28.1560,-82.7580,0.01,1111122 
COMPS,ioos:station:USF.COMPS:TAR:1,2013-05-02T01:36:00Z,28.1560,-82.7580,0.01,1111122 
COMPS,ioos:station:USF.COMPS:TAR:1,2013-05-02T01:42:00Z,28.1560,-82.7580,0.01,1111122 
COMPS,ioos:station:USF.COMPS:TAR:1,2013-05-02T01:48:00Z,28.1560,-82.7580,0.01,1111122 
COMPS,ioos:station:USF.COMPS:TAR:1,2013-05-02T01:54:00Z,28.1560,-82.7580,0.01,1111122 
COMPS,ioos:station:USF.COMPS:TAR:1,2013-05-02T02:00:00Z,28.1560,-82.7580,0.009,1111122 
COMPS,ioos:station:USF.COMPS:TAR:1,2013-05-02T02:06:00Z,28.1560,-82.7580,0.009,1111122 
COMPS,ioos:station:USF.COMPS:TAR:1,2013-05-02T02:12:00Z,28.1560,-82.7580,0.009,1111122 
COMPS,ioos:station:USF.COMPS:TAR:1,2013-05-02T02:18:00Z,28.1560,-82.7580,0.009,1111122 
COMPS,ioos:station:USF.COMPS:TAR:1,2013-05-02T02:24:00Z,28.1560,-82.7580,0.009,1111122 
COMPS,ioos:station:USF.COMPS:TAR:1,2013-05-02T02:30:00Z,28.1560,-82.7580,0.009,1111122 
COMPS,ioos:station:USF.COMPS:TAR:1,2013-05-02T02:36:00Z,28.1560,-82.7580,0.009,1111122 
COMPS,ioos:station:USF.COMPS:TAR:1,2013-05-02T02:42:00Z,28.1560,-82.7580,0.008,1111122 
COMPS,ioos:station:USF.COMPS:TAR:1,2013-05-02T02:48:00Z,28.1560,-82.7580,0.008,1111122 
COMPS,ioos:station:USF.COMPS:TAR:1,2013-05-02T02:54:00Z,28.1560,-82.7580,0.008,1111122 
COMPS,ioos:station:USF.COMPS:TAR:1,2013-05-02T03:00:00Z,28.1560,-82.7580,0.007,1111122 
COMPS,ioos:station:USF.COMPS:TAR:1,2013-05-02T03:06:00Z,28.1560,-82.7580,0.007,1111122 
COMPS,ioos:station:USF.COMPS:TAR:1,2013-05-02T03:12:00Z,28.1560,-82.7580,0.007,1111122 
COMPS,ioos:station:USF.COMPS:TAR:1,2013-05-02T03:18:00Z,28.1560,-82.7580,0.006,1111122 
COMPS,ioos:station:USF.COMPS:TAR:1,2013-05-02T03:24:00Z,28.1560,-82.7580,0.006,1111122 
COMPS,ioos:station:USF.COMPS:TAR:1,2013-05-02T03:30:00Z,28.1560,-82.7580,0.005,1111122 
COMPS,ioos:station:USF.COMPS:TAR:1,2013-05-02T03:36:00Z,28.1560,-82.7580,0.005,1111122 
COMPS,ioos:station:USF.COMPS:TAR:1,2013-05-02T03:42:00Z,28.1560,-82.7580,0.004,1111122 
COMPS,ioos:station:USF.COMPS:TAR:1,2013-05-02T03:48:00Z,28.1560,-82.7580,0.003,1111122 
COMPS,ioos:station:USF.COMPS:TAR:1,2013-05-02T03:54:00Z,28.1560,-82.7580,0.002,1111122 
COMPS,ioos:station:USF.COMPS:TAR:1,2013-05-02T04:00:00Z,28.1560,-82.7580,0.001,1111122 
COMPS,ioos:station:USF.COMPS:TAR:1,2013-05-02T04:06:00Z,28.1560,-82.7580,0.0,1114422 
COMPS,ioos:station:USF.COMPS:TAR:1,2013-05-02T04:12:00Z,28.1560,-82.7580,-0.001,1111122 
COMPS,ioos:station:USF.COMPS:TAR:1,2013-05-02T04:18:00Z,28.1560,-82.7580,-0.002,1111122 
COMPS,ioos:station:USF.COMPS:TAR:1,2013-05-02T04:24:00Z,28.1560,-82.7580,-0.002,1111122 
COMPS,ioos:station:USF.COMPS:TAR:1,2013-05-02T04:30:00Z,28.1560,-82.7580,-0.003,1111122 
COMPS,ioos:station:USF.COMPS:TAR:1,2013-05-02T04:36:00Z,28.1560,-82.7580,-0.004,1111122 
COMPS,ioos:station:USF.COMPS:TAR:1,2013-05-02T04:42:00Z,28.1560,-82.7580,-0.006,1111122 
COMPS,ioos:station:USF.COMPS:TAR:1,2013-05-02T04:48:00Z,28.1560,-82.7580,-0.007,1111122 
COMPS,ioos:station:USF.COMPS:TAR:1,2013-05-02T04:54:00Z,28.1560,-82.7580,-0.008,1111122 
COMPS,ioos:station:USF.COMPS:TAR:1,2013-05-02T05:00:00Z,28.1560,-82.7580,-0.009,1111122 
COMPS,ioos:station:USF.COMPS:TAR:1,2013-05-02T05:06:00Z,28.1560,-82.7580,-0.01,1111122 
COMPS,ioos:station:USF.COMPS:TAR:1,2013-05-02T05:12:00Z,28.1560,-82.7580,-0.012,1111122 
COMPS,ioos:station:USF.COMPS:TAR:1,2013-05-02T05:18:00Z,28.1560,-82.7580,-0.013,1111122 
COMPS,ioos:station:USF.COMPS:TAR:1,2013-05-02T05:24:00Z,28.1560,-82.7580,-0.014,1111122 
COMPS,ioos:station:USF.COMPS:TAR:1,2013-05-02T05:30:00Z,28.1560,-82.7580,-0.015,1111122 
COMPS,ioos:station:USF.COMPS:TAR:1,2013-05-02T05:36:00Z,28.1560,-82.7580,-0.016,1111122 
COMPS,ioos:station:USF.COMPS:TAR:1,2013-05-02T05:42:00Z,28.1560,-82.7580,-0.017,1111122 
COMPS,ioos:station:USF.COMPS:TAR:1,2013-05-02T05:48:00Z,28.1560,-82.7580,-0.019,1111122 
COMPS,ioos:station:USF.COMPS:TAR:1,2013-05-02T05:54:00Z,28.1560,-82.7580,-0.02,1111122 
COMPS,ioos:station:USF.COMPS:TAR:1,2013-05-02T06:00:00Z,28.1560,-82.7580,-0.021,1111122 
COMPS,ioos:station:USF.COMPS:TAR:1,2013-05-02T06:06:00Z,28.1560,-82.7580,-0.023,1111122 
COMPS,ioos:station:USF.COMPS:TAR:1,2013-05-02T06:12:00Z,28.1560,-82.7580,-0.024,1111122 
COMPS,ioos:station:USF.COMPS:TAR:1,2013-05-02T06:18:00Z,28.1560,-82.7580,-0.025,1111122 
COMPS,ioos:station:USF.COMPS:TAR:1,2013-05-02T06:24:00Z,28.1560,-82.7580,-0.026,1111122 
COMPS,ioos:station:USF.COMPS:TAR:1,2013-05-02T06:30:00Z,28.1560,-82.7580,-0.027,1111122 
COMPS,ioos:station:USF.COMPS:TAR:1,2013-05-02T06:36:00Z,28.1560,-82.7580,-0.028,1111122 
COMPS,ioos:station:USF.COMPS:TAR:1,2013-05-02T06:42:00Z,28.1560,-82.7580,-0.03,1111122 
COMPS,ioos:station:USF.COMPS:TAR:1,2013-05-02T06:48:00Z,28.1560,-82.7580,-0.031,1111122 
COMPS,ioos:station:USF.COMPS:TAR:1,2013-05-02T06:54:00Z,28.1560,-82.7580,-0.032,1111122 
COMPS,ioos:station:USF.COMPS:TAR:1,2013-05-02T07:00:00Z,28.1560,-82.7580,-0.033,1111122 
COMPS,ioos:station:USF.COMPS:TAR:1,2013-05-02T07:06:00Z,28.1560,-82.7580,-0.034,1111122 
COMPS,ioos:station:USF.COMPS:TAR:1,2013-05-02T07:12:00Z,28.1560,-82.7580,-0.034,1111122 
COMPS,ioos:station:USF.COMPS:TAR:1,2013-05-02T07:18:00Z,28.1560,-82.7580,-0.035,1111122 
COMPS,ioos:station:USF.COMPS:TAR:1,2013-05-02T07:24:00Z,28.1560,-82.7580,-0.036,1111122 
COMPS,ioos:station:USF.COMPS:TAR:1,2013-05-02T07:30:00Z,28.1560,-82.7580,-0.036,1111122 
COMPS,ioos:station:USF.COMPS:TAR:1,2013-05-02T07:36:00Z,28.1560,-82.7580,-0.036,1111122 
COMPS,ioos:station:USF.COMPS:TAR:1,2013-05-02T07:42:00Z,28.1560,-82.7580,-0.037,1111122 
COMPS,ioos:station:USF.COMPS:TAR:1,2013-05-02T07:48:00Z,28.1560,-82.7580,-0.037,1111122 
COMPS,ioos:station:USF.COMPS:TAR:1,2013-05-02T07:54:00Z,28.1560,-82.7580,-0.038,1111122 
COMPS,ioos:station:USF.COMPS:TAR:1,2013-05-02T08:00:00Z,28.1560,-82.7580,-0.038,1111122 
COMPS,ioos:station:USF.COMPS:TAR:1,2013-05-02T08:06:00Z,28.1560,-82.7580,-0.039,1111122 
COMPS,ioos:station:USF.COMPS:TAR:1,2013-05-02T08:12:00Z,28.1560,-82.7580,-0.039,1111122 
COMPS,ioos:station:USF.COMPS:TAR:1,2013-05-02T08:18:00Z,28.1560,-82.7580,-0.04,1111122 
COMPS,ioos:station:USF.COMPS:TAR:1,2013-05-02T08:24:00Z,28.1560,-82.7580,-0.04,1111122 
COMPS,ioos:station:USF.COMPS:TAR:1,2013-05-02T08:30:00Z,28.1560,-82.7580,-0.041,1111122 
COMPS,ioos:station:USF.COMPS:TAR:1,2013-05-02T08:36:00Z,28.1560,-82.7580,-0.041,1111122 
COMPS,ioos:station:USF.COMPS:TAR:1,2013-05-02T08:42:00Z,28.1560,-82.7580,-0.041,1111122 
COMPS,ioos:station:USF.COMPS:TAR:1,2013-05-02T08:48:00Z,28.1560,-82.7580,-0.041,1111122 
COMPS,ioos:station:USF.COMPS:TAR:1,2013-05-02T08:54:00Z,28.1560,-82.7580,-0.042,1111122 
COMPS,ioos:station:USF.COMPS:TAR:1,2013-05-02T09:00:00Z,28.1560,-82.7580,-0.041,1111122 
COMPS,ioos:station:USF.COMPS:TAR:1,2013-05-02T09:06:00Z,28.1560,-82.7580,-0.041,1111122 
COMPS,ioos:station:USF.COMPS:TAR:1,2013-05-02T09:12:00Z,28.1560,-82.7580,-0.04,1111122 
COMPS,ioos:station:USF.COMPS:TAR:1,2013-05-02T09:18:00Z,28.1560,-82.7580,-0.04,1111122 
COMPS,ioos:station:USF.COMPS:TAR:1,2013-05-02T09:24:00Z,28.1560,-82.7580,-0.04,1111122 
COMPS,ioos:station:USF.COMPS:TAR:1,2013-05-02T09:30:00Z,28.1560,-82.7580,-0.041,1111122 
COMPS,ioos:station:USF.COMPS:TAR:1,2013-05-02T09:36:00Z,28.1560,-82.7580,-0.041,1111122 
COMPS,ioos:station:USF.COMPS:TAR:1,2013-05-02T09:42:00Z,28.1560,-82.7580,-0.041,1111122 
COMPS,ioos:station:USF.COMPS:TAR:1,2013-05-02T09:48:00Z,28.1560,-82.7580,-0.041,1111122 
COMPS,ioos:station:USF.COMPS:TAR:1,2013-05-02T09:54:00Z,28.1560,-82.7580,-0.041,1111122 
COMPS,ioos:station:USF.COMPS:TAR:1,2013-05-02T10:00:00Z,28.1560,-82.7580,-0.04,1111122 
COMPS,ioos:station:USF.COMPS:TAR:1,2013-05-02T10:06:00Z,28.1560,-82.7580,-0.04,1111122 
COMPS,ioos:station:USF.COMPS:TAR:1,2013-05-02T10:12:00Z,28.1560,-82.7580,-0.04,1111122 
COMPS,ioos:station:USF.COMPS:TAR:1,2013-05-02T10:18:00Z,28.1560,-82.7580,-0.04,1111122 
COMPS,ioos:station:USF.COMPS:TAR:1,2013-05-02T10:24:00Z,28.1560,-82.7580,-0.04,1111122 
COMPS,ioos:station:USF.COMPS:TAR:1,2013-05-02T10:30:00Z,28.1560,-82.7580,-0.039,1111122 
COMPS,ioos:station:USF.COMPS:TAR:1,2013-05-02T10:36:00Z,28.1560,-82.7580,-0.039,1111122 
COMPS,ioos:station:USF.COMPS:TAR:1,2013-05-02T10:42:00Z,28.1560,-82.7580,-0.038,1111122 
COMPS,ioos:station:USF.COMPS:TAR:1,2013-05-02T10:48:00Z,28.1560,-82.7580,-0.038,1111122 
COMPS,ioos:station:USF.COMPS:TAR:1,2013-05-02T10:54:00Z,28.1560,-82.7580,-0.037,1111122 
COMPS,ioos:station:USF.COMPS:TAR:1,2013-05-02T11:00:00Z,28.1560,-82.7580,-0.037,1111122 
COMPS,ioos:station:USF.COMPS:TAR:1,2013-05-02T11:06:00Z,28.1560,-82.7580,-0.036,1111122 
COMPS,ioos:station:USF.COMPS:TAR:1,2013-05-02T11:12:00Z,28.1560,-82.7580,-0.036,1111122 
COMPS,ioos:station:USF.COMPS:TAR:1,2013-05-02T11:18:00Z,28.1560,-82.7580,-0.036,1111122 
COMPS,ioos:station:USF.COMPS:TAR:1,2013-05-02T11:24:00Z,28.1560,-82.7580,-0.035,1111122 
COMPS,ioos:station:USF.COMPS:TAR:1,2013-05-02T11:30:00Z,28.1560,-82.7580,-0.035,1111122 
COMPS,ioos:station:USF.COMPS:TAR:1,2013-05-02T11:36:00Z,28.1560,-82.7580,-0.035,1111122 
COMPS,ioos:station:USF.COMPS:TAR:1,2013-05-02T11:42:00Z,28.1560,-82.7580,-0.034,1111122 
COMPS,ioos:station:USF.COMPS:TAR:1,2013-05-02T11:48:00Z,28.1560,-82.7580,-0.034,1111122 
COMPS,ioos:station:USF.COMPS:TAR:1,2013-05-02T11:54:00Z,28.1560,-82.7580,-0.033,1111122 
COMPS,ioos:station:USF.COMPS:TAR:1,2013-05-02T12:00:00Z,28.1560,-82.7580,-0.032,1111122 
COMPS,ioos:station:USF.COMPS:TAR:1,2013-05-02T12:06:00Z,28.1560,-82.7580,-0.031,1111122 
COMPS,ioos:station:USF.COMPS:TAR:1,2013-05-02T12:12:00Z,28.1560,-82.7580,-0.03,1111122 
COMPS,ioos:station:USF.COMPS:TAR:1,2013-05-02T12:18:00Z,28.1560,-82.7580,-0.03,1111122 
COMPS,ioos:station:USF.COMPS:TAR:1,2013-05-02T12:24:00Z,28.1560,-82.7580,-0.029,1111122 
COMPS,ioos:station:USF.COMPS:TAR:1,2013-05-02T12:30:00Z,28.1560,-82.7580,-0.029,1111122 
COMPS,ioos:station:USF.COMPS:TAR:1,2013-05-02T12:36:00Z,28.1560,-82.7580,-0.03,1111122 
COMPS,ioos:station:USF.COMPS:TAR:1,2013-05-02T12:42:00Z,28.1560,-82.7580,-0.03,1111122 
COMPS,ioos:station:USF.COMPS:TAR:1,2013-05-02T12:48:00Z,28.1560,-82.7580,-0.03,1111122 
COMPS,ioos:station:USF.COMPS:TAR:1,2013-05-02T12:54:00Z,28.1560,-82.7580,-0.031,1111122 
COMPS,ioos:station:USF.COMPS:TAR:1,2013-05-02T13:00:00Z,28.1560,-82.7580,-0.031,1111122 
COMPS,ioos:station:USF.COMPS:TAR:1,2013-05-02T13:06:00Z,28.1560,-82.7580,-0.03,1111122 
COMPS,ioos:station:USF.COMPS:TAR:1,2013-05-02T13:12:00Z,28.1560,-82.7580,-0.03,1111122 
COMPS,ioos:station:USF.COMPS:TAR:1,2013-05-02T13:18:00Z,28.1560,-82.7580,-0.027,1111122 
COMPS,ioos:station:USF.COMPS:TAR:1,2013-05-02T13:24:00Z,28.1560,-82.7580,-0.024,1111122 
COMPS,ioos:station:USF.COMPS:TAR:1,2013-05-02T13:30:00Z,28.1560,-82.7580,-0.021,1111122 
COMPS,ioos:station:USF.COMPS:TAR:1,2013-05-02T13:36:00Z,28.1560,-82.7580,-0.021,1111122 
COMPS,ioos:station:USF.COMPS:TAR:1,2013-05-02T13:42:00Z,28.1560,-82.7580,-0.021,1111122 
COMPS,ioos:station:USF.COMPS:TAR:1,2013-05-02T13:48:00Z,28.1560,-82.7580,-0.021,1111122 
COMPS,ioos:station:USF.COMPS:TAR:1,2013-05-02T13:54:00Z,28.1560,-82.7580,-0.022,1111122 
COMPS,ioos:station:USF.COMPS:TAR:1,2013-05-02T14:00:00Z,28.1560,-82.7580,-0.024,1111122 
COMPS,ioos:station:USF.COMPS:TAR:1,2013-05-02T14:06:00Z,28.1560,-82.7580,-0.025,1111122 
COMPS,ioos:station:USF.COMPS:TAR:1,2013-05-02T14:12:00Z,28.1560,-82.7580,-0.026,1111122 
COMPS,ioos:station:USF.COMPS:TAR:1,2013-05-02T14:18:00Z,28.1560,-82.7580,-0.027,1111122 
COMPS,ioos:station:USF.COMPS:TAR:1,2013-05-02T14:24:00Z,28.1560,-82.7580,-0.027,1111122 
COMPS,ioos:station:USF.COMPS:TAR:1,2013-05-02T14:30:00Z,28.1560,-82.7580,-0.026,1111122 
COMPS,ioos:station:USF.COMPS:TAR:1,2013-05-02T14:36:00Z,28.1560,-82.7580,-0.025,1111122 
COMPS,ioos:station:USF.COMPS:TAR:1,2013-05-02T14:42:00Z,28.1560,-82.7580,-0.023,1111122 
COMPS,ioos:station:USF.COMPS:TAR:1,2013-05-02T14:48:00Z,28.1560,-82.7580,-0.022,1111122 
COMPS,ioos:station:USF.COMPS:TAR:1,2013-05-02T14:54:00Z,28.1560,-82.7580,-0.024,1111122 
COMPS,ioos:station:USF.COMPS:TAR:1,2013-05-02T15:00:00Z,28.1560,-82.7580,-0.026,1111122 
COMPS,ioos:station:USF.COMPS:TAR:1,2013-05-02T15:06:00Z,28.1560,-82.7580,-0.026,1111122 
COMPS,ioos:station:USF.COMPS:TAR:1,2013-05-02T15:12:00Z,28.1560,-82.7580,-0.026,1111122 
COMPS,ioos:station:USF.COMPS:TAR:1,2013-05-02T15:18:00Z,28.1560,-82.7580,-0.026,1111122 
COMPS,ioos:station:USF.COMPS:TAR:1,2013-05-02T15:24:00Z,28.1560,-82.7580,-0.027,1111122 
COMPS,ioos:station:USF.COMPS:TAR:1,2013-05-02T15:30:00Z,28.1560,-82.7580,-0.026,1111122 
COMPS,ioos:station:USF.COMPS:TAR:1,2013-05-02T15:36:00Z,28.1560,-82.7580,-0.026,1111122 
COMPS,ioos:station:USF.COMPS:TAR:1,2013-05-02T15:42:00Z,28.1560,-82.7580,-0.027,1111122 
COMPS,ioos:station:USF.COMPS:TAR:1,2013-05-02T15:48:00Z,28.1560,-82.7580,-0.026,1111122 
COMPS,ioos:station:USF.COMPS:TAR:1,2013-05-02T15:54:00Z,28.1560,-82.7580,-0.026,1111122 
COMPS,ioos:station:USF.COMPS:TAR:1,2013-05-02T16:00:00Z,28.1560,-82.7580,-0.027,1111122 
COMPS,ioos:station:USF.COMPS:TAR:1,2013-05-02T16:06:00Z,28.1560,-82.7580,-0.028,1111122 
COMPS,ioos:station:USF.COMPS:TAR:1,2013-05-02T16:12:00Z,28.1560,-82.7580,-0.028,1111122 
COMPS,ioos:station:USF.COMPS:TAR:1,2013-05-02T16:18:00Z,28.1560,-82.7580,-0.028,1111122 
COMPS,ioos:station:USF.COMPS:TAR:1,2013-05-02T16:24:00Z,28.1560,-82.7580,-0.027,1111122 
COMPS,ioos:station:USF.COMPS:TAR:1,2013-05-02T16:30:00Z,28.1560,-82.7580,-0.027,1111122 
COMPS,ioos:station:USF.COMPS:TAR:1,2013-05-02T16:36:00Z,28.1560,-82.7580,-0.027,1111122 
COMPS,ioos:station:USF.COMPS:TAR:1,2013-05-02T16:42:00Z,28.1560,-82.7580,-0.027,1111122 
COMPS,ioos:station:USF.COMPS:TAR:1,2013-05-02T16:48:00Z,28.1560,-82.7580,-0.027,1111122 
COMPS,ioos:station:USF.COMPS:TAR:1,2013-05-02T16:54:00Z,28.1560,-82.7580,-0.028,1111122 
COMPS,ioos:station:USF.COMPS:TAR:1,2013-05-02T17:00:00Z,28.1560,-82.7580,-0.028,1111122 
COMPS,ioos:station:USF.COMPS:TAR:1,2013-05-02T17:06:00Z,28.1560,-82.7580,-0.028,1111122 
COMPS,ioos:station:USF.COMPS:TAR:1,2013-05-02T17:12:00Z,28.1560,-82.7580,-0.026,1111122 
COMPS,ioos:station:USF.COMPS:TAR:1,2013-05-02T17:18:00Z,28.1560,-82.7580,-0.025,1111122 
COMPS,ioos:station:USF.COMPS:TAR:1,2013-05-02T17:24:00Z,28.1560,-82.7580,-0.028,1111122 
COMPS,ioos:station:USF.COMPS:TAR:1,2013-05-02T17:30:00Z,28.1560,-82.7580,-0.026,1111122 
COMPS,ioos:station:USF.COMPS:TAR:1,2013-05-02T17:36:00Z,28.1560,-82.7580,-0.028,1111122 
COMPS,ioos:station:USF.COMPS:TAR:1,2013-05-02T17:42:00Z,28.1560,-82.7580,-0.028,1111122 
COMPS,ioos:station:USF.COMPS:TAR:1,2013-05-02T17:48:00Z,28.1560,-82.7580,-0.026,1111122 